This is the latest recevied weather packets stored in our database for station/object ON3FV. If no packets are shown the sender has not sent any weather packets the latest 10 day(s).
| Time | Temp. | Humidity | Pressure | Rain* | Wind** | Luminosity | Snow |
|---|---|---|---|---|---|---|---|
| 1777870833 | 12.22° C | 90% | 1011 hPa | - | - | - | - |
| 1777869629 | 12.22° C | 90% | 1011.1 hPa | - | - | - | - |
| 1777868425 | 12.78° C | 90% | 1011 hPa | - | - | - | - |
| 1777866018 | 12.78° C | 91% | 1011 hPa | - | - | - | - |
| 1777861201 | 12.78° C | 90% | 1010.5 hPa | - | - | - | - |
| 1777860298 | 13.33° C | 90% | 1010.7 hPa | - | - | - | - |
| 1777854278 | 13.89° C | 90% | 1010.7 hPa | - | - | - | - |
| 1777853675 | 13.89° C | 90% | 1010.7 hPa | - | - | - | - |
| 1777851870 | 13.89° C | 89% | 1010.6 hPa | - | - | - | - |
| 1777851568 | 13.89° C | 89% | 1010.6 hPa | - | - | - | - |
| 1777845248 | 14.44° C | 89% | 1010.5 hPa | - | - | - | - |
| 1777843743 | 14.44° C | 89% | 1010.5 hPa | - | - | - | - |
| 1777841936 | 14.44° C | 89% | 1010.6 hPa | - | - | - | - |
| 1777841335 | 14.44° C | 88% | 1010.6 hPa | - | - | - | - |
| 1777840432 | 14.44° C | 88% | 1010.4 hPa | - | - | - | - |
| 1777839528 | 14.44° C | 88% | 1010.5 hPa | - | - | - | - |
| 1777836840 | 14.44° C | 87% | 1010.2 hPa | - | - | - | - |
| 1777835315 | 15° C | 87% | 1010.1 hPa | - | - | - | - |
| 1777834713 | 15.56° C | 87% | 1009.8 hPa | - | - | - | - |
| 1777834111 | 15.56° C | 86% | 1009.8 hPa | - | - | - | - |
| 1777832305 | 16.11° C | 86% | 1009.8 hPa | - | - | - | - |
| 1777831402 | 16.11° C | 86% | 1009.8 hPa | - | - | - | - |
| 1777828392 | 16.67° C | 87% | 1009.6 hPa | - | - | - | - |
| 1777828091 | 16.67° C | 87% | 1009.6 hPa | - | - | - | - |
| 1777824198 | 16.11° C | 87% | 1009.7 hPa | - | - | - | - |
* Rain since midnight (hover to see other rain measurements)
** Current wind speed in m/s (hover to see current wind gust speed)